• Join FlightAware (Why Join?)
  • Login
  • US Flag 
11:51AM EDT


 

Airport Tracker/Info


-or-


 

Live Flight TrackerFlight Track Log ✈ DAL6035 ✈ 13-Apr-2013 ✈ KLGA - KMHT

Flight Track Log - Related Links

Times and Time Zones

All times are in EDT time to prevent confusion due to time zone crossing. See the DAL6035 flight status page for this flight to view local times or setup timezone preferences in your user account.

Time Position Orientation Groundspeed Altitude Reporting Facility
EDT Latitude Longitude Course Direction KTS MPH feet Rate Location/Type
11:58AM 40.8167 -73.8500 33° Northeast 174 200 1,900  Level New York TRACON
12:01PM 40.9094 -73.7117 48° Northeast 228 262 6,300 1,920 Climbing Boston Center
12:01PM 40.9500 -73.6164 61° Northeast 263 303 8,200 1,920 Climbing Boston Center
12:02PM 41.0131 -73.5542 37° Northeast 276 318 10,200 1,680 Climbing Boston Center
12:03PM 41.0947 -73.5114 22° Northeast 298 343 11,600 1,380 Climbing Boston Center
12:04PM 41.2406 -73.4896 33° Northeast  Level FlightAware Approximate
12:05PM 41.1828 -73.4578 25° Northeast 335 386 13,100  Level Boston Center
12:05PM 41.2711 -73.3900 30° Northeast 350 403 14,600 1,440 Climbing Boston Center
12:06PM 41.3653 -73.3197 29° Northeast 364 419 16,000 1,200 Climbing Boston Center
12:07PM 41.4514 -73.2544 30° Northeast 385 443 17,100 480 Climbing Boston Center
12:09PM 41.5622 -73.1669 31° Northeast 404 465 17,000 -60 Descending Boston Center
12:10PM 41.6544 -73.0958 30° Northeast 417 480 17,000  Level Boston Center
12:10PM 41.7675 -73.0164 28° Northeast 417 480 17,000 -60 Level Boston Center
12:11PM 41.8700 -72.9475 27° Northeast 412 474 16,900 -60 Descending Boston Center
12:13PM 41.9681 -72.8756 29° Northeast 412 474 16,900  Level Boston Center
12:13PM 42.0725 -72.8036 27° Northeast 412 474 16,900  Level Boston Center
12:14PM 42.1728 -72.7314 28° Northeast 405 466 16,900  Level Boston Center
12:15PM 42.2708 -72.6644 27° Northeast 393 452 17,000  Climbing Boston Center
12:16PM 42.3628 -72.6003 27° Northeast 393 452 17,000  Level Boston Center
12:18PM 42.4711 -72.5217 28° Northeast 408 470 17,000  Level Boston Center
12:18PM 42.5817 -72.4428 28° Northeast 428 493 17,000 -600 Level Boston Center
12:20PM 42.6775 -72.2706 53° Northeast 428 493 15,800 -1,320 Descending Boston Center
12:21PM 42.7294 -72.1461 60° Northeast 428 493 14,100 -2,340 Descending Boston Center
12:22PM 42.7933 -71.9931 60° Northeast 417 480 11,200 -1,980 Descending Boston Center
12:23PM 42.8261 -71.8739 69° East 383 441 10,200 -1,380 Descending Boston Center
12:24PM 42.8547 -71.7492 73° East 329 379 8,500 -1,740 Descending Boston Center
12:25PM 42.8939 -71.6664 57° Northeast 287 330 6,800 -1,680 Descending Boston Center
12:26PM 42.8539 -71.6131 136° Southeast 169 194 5,200 -1,380 Descending Boston Center
12:27PM 42.8231 -71.6814 238° Southwest 132 152 4,100 -1,080 Descending Boston Center
12:28PM 42.7733 -71.7386 220° Southwest 185 213 3,100 -600 Descending Boston Center
12:29PM 42.7625 -71.6736 103° East 95 109 3,000 -60 Descending Boston Center
12:30PM 42.7975 -71.6111 53° Northeast 152 175 3,000 -60 Level Boston Center
12:31PM 42.8306 -71.5708 42° Northeast 171 197 2,900 -660 Descending Boston Center
12:32PM 42.8697 -71.5222 42° Northeast 178 205 1,800 -900 Descending Boston Center
12:33PM 42.8986 -71.4878 41° Northeast 159 183 1,100 -720 Descending Boston Center
12:34PM 42.9275 -71.4506 43° Northeast 149 171 400 -720 Descending Boston Center